[[{"header":{"parameterUnit":"m.s-1","parameterCategory":1,"la1":30.2991,"la2":30.254,"lo1":-89.0895,"lo2":-89.0444,"dy":0.0017,"dx":0.0017,"nx":28,"ny":28,"refTime":"2023-07-25T09:00:00:Z","depth":0,"parameterNumber":2,"parameterNumberName":"U-component_of_WINDS"},"data":[0,0,0,0,0,0,0,0,0,0,0,0,0,0,0,0,0,0,0,0,0,0,0,0,0,0,0,0,0,0,0,0,0,0,0,0,0,0,0,0,0,0,0,0,0,0,0,0,0,0,0,0,0,0,0,0,0,0,1.239,1.2391,0,1.2416,1.2416,1.2416,1.2396,1.2395,1.2394,1.2393,1.2418,1.2419,1.2421,0,0,0,0,0,0,0,0,0,0,0,0,0,1.2327,1.2328,1.239,1.2391,1.2391,1.2415,1.2416,1.2416,1.2396,1.2395,1.2394,1.2393,1.2417,1.2419,1.2421,0,0,0,0,0,0,0,0,0,0,0,0,0,1.2353,1.2328,1.239,1.2384,1.2383,1.2415,1.2416,1.2416,1.2396,1.2395,1.2393,1.2392,1.2417,1.2419,1.2421,1.2461,0,0,1.2428,1.2429,0,0,0,0,0,0,0,0,1.2352,1.2356,1.2384,1.2384,1.2384,1.2401,1.2402,1.2431,1.2396,1.2391,1.2393,1.2391,1.2413,1.2416,1.2423,1.2462,1.2463,1.2428,1.2429,1.243,1.2431,0,0,0,0,0,0,0,1.235,1.2355,1.24,1.2385,1.2385,1.238,1.2383,1.2408,1.2409,1.2391,1.239,1.2393,1.2413,1.2421,1.2424,1.2463,1.2428,1.243,1.2431,1.2432,1.254,1.2541,0,0,0,0,0,0,1.2349,1.2353,1.2399,1.2401,1.2364,1.2382,1.2385,1.2397,1.2409,1.2409,1.2394,1.2392,1.2418,1.2421,1.2424,1.2474,1.243,1.2432,1.2434,1.2538,1.254,1.2542,0,0,0,0,0,0,1.2347,1.2353,1.2398,1.2377,1.2382,1.2385,1.2398,1.2398,1.2406,1.2411,1.2411,1.2402,1.2417,1.2421,1.2453,1.2474,1.2433,1.2435,1.2536,1.2539,1.2541,1.2572,0,0,0,0,0,0,1.2346,1.2353,1.2367,1.2377,1.2383,1.2426,1.24,1.2399,1.241,1.2408,1.2419,1.2419,1.2416,1.245,1.2455,1.2477,1.2437,1.2534,1.2537,1.254,1.2569,1.2575,1.258,0,0,0,0,0,1.2344,1.2374,1.2368,1.2373,1.2401,1.2427,1.2431,1.2427,1.2412,1.2427,1.2431,1.2419,1.2471,1.2453,1.2459,1.2482,1.2533,1.2537,1.254,1.2566,1.2574,1.258,0,0,0,0,0,0,1.2364,1.2375,1.2368,1.2402,1.2414,1.2423,1.2442,1.2434,1.245,1.2447,1.2442,1.2444,1.2478,1.2483,1.2462,1.2523,1.25,1.2505,1.2518,1.2525,1.253,1.2529,1.2439,0,0,0,0,0,1.2373,1.2393,1.2401,1.243,1.2437,1.2439,1.245,1.2446,1.2458,1.2463,1.2468,1.248,1.25,1.2513,1.2531,1.257,1.2573,1.2589,1.2594,1.2599,1.2603,1.2627,1.2635,1.2553,1.2553,1.2553,0,0,1.2391,1.2399,1.2411,1.2435,1.2443,1.2465,1.2443,1.2465,1.2482,1.2466,1.2497,1.2502,1.2515,1.2552,1.2568,1.2556,1.2627,1.2603,1.2607,1.2609,1.2632,1.2639,1.2646,1.2555,1.2555,1.2555,0,0,1.2434,1.2442,1.2469,1.2479,1.2493,1.2495,1.2502,1.2513,1.2516,1.2547,1.2537,1.2557,1.259,1.2601,1.261,1.2663,1.2654,1.2669,1.2698,1.2722,1.2729,1.2734,1.2755,1.2763,1.2674,1.2674,1.2674,0,1.2454,1.2486,1.2483,1.2508,1.252,1.2509,1.2537,1.2547,1.2566,1.2575,1.2562,1.2606,1.2614,1.2654,1.2668,1.2675,1.2684,1.2668,1.2728,1.2734,1.2739,1.2759,1.2767,1.2676,1.2675,1.2675,1.2675,0,1.2512,1.2534,1.2555,1.2575,1.2589,1.2616,1.2618,1.2633,1.263,1.2633,1.2667,1.2677,1.2698,1.2707,1.2703,1.2748,1.2741,1.2729,1.2706,1.2749,1.2768,1.2775,1.2678,1.2678,1.2677,1.2677,0,0,1.2566,1.2588,1.2596,1.2606,1.2623,1.2641,1.2669,1.2691,1.2705,1.2719,1.2743,1.2774,1.2763,1.2774,1.2772,1.2793,1.2838,1.2778,1.2778,1.279,1.2891,1.2901,1.2909,1.2832,1.2833,1.2834,1.289,0,1.2612,1.2659,1.266,1.2704,1.2727,1.2718,1.2743,1.2756,1.2762,1.2782,1.2788,1.281,1.2793,1.2801,1.2821,1.2828,1.2858,1.2824,1.2855,1.2856,1.2852,1.2919,1.2929,1.2981,1.2897,1.2898,1.2899,0,1.267,1.2689,1.2737,1.2754,1.2763,1.2785,1.2807,1.2827,1.2844,1.2846,1.2861,1.2857,1.2886,1.2864,1.2906,1.2883,1.2896,1.2902,1.2904,1.2906,1.288,1.2925,1.2997,1.3005,1.291,1.291,1.2909,0,1.2708,1.2745,1.2779,1.2788,1.2809,1.2825,1.2834,1.285,1.2864,1.2884,1.2894,1.2917,1.2929,1.2947,1.295,1.2933,1.2993,1.297,1.2997,1.2998,1.301,1.3009,1.3086,1.3018,1.3017,1.3017,1.3017,0,1.2759,1.2788,1.2796,1.2817,1.2851,1.2852,1.2886,1.2894,1.2909,1.2933,1.2926,1.2949,1.2951,1.2974,1.2976,1.3012,1.3018,1.3021,1.3022,1.3022,1.3022,1.3031,1.3028,1.3019,1.3019,1.3018,1.3018,0,1.2805,1.2811,1.2848,1.2866,1.2872,1.2896,1.2912,1.2933,1.2939,1.2969,1.2976,1.2986,1.3013,1.3018,1.305,1.3052,1.3096,1.3092,1.309,1.309,1.3118,1.3116,1.3204,1.3217,1.3139,1.3139,1.314,0,1.2837,1.286,1.2882,1.2898,1.2909,1.2934,1.295,1.2953,1.297,1.2993,1.3012,1.3039,1.3061,1.3106,1.3116,1.3142,1.3139,1.3169,1.3143,1.3144,1.3142,1.314,1.3144,1.3173,1.3174,1.3175,1.3175,0,1.2894,1.2898,1.2921,1.2947,1.2966,1.2986,1.3005,1.3018,1.3025,1.3044,1.3073,1.3091,1.3126,1.3153,1.318,1.319,1.3185,1.3184,1.3192,1.3193,1.3191,1.3194,1.3105,1.3181,1.3181,1.318,1.318,1.318,1.2935,1.2957,1.2977,1.3004,1.3019,1.3038,1.306,1.307,1.3095,1.3124,1.3125,1.3157,1.3177,1.3212,1.3225,1.3251,1.3242,1.3253,1.3256,1.3258,1.3262,1.3188,1.3256,1.3255,1.3255,1.3255,1.3255,0,1.2994,1.3007,1.3032,1.306,1.3083,1.3077,1.3099,1.3118,1.3147,1.3166,1.3189,1.3225,1.3253,1.3267,1.3295,1.3314,1.3313,1.3322,1.332,1.3323,1.3268,1.3259,1.3323,1.3323,1.3323,1.3323,1.3323,1.3323,1.3026,1.3064,1.307,1.3116,1.3129,1.3162,1.3175,1.3194,1.3209,1.3249,1.3274,1.3283,1.3301,1.3332,1.3358,1.3362,1.3373,1.3384,1.3386,1.3334,1.3327,1.332,1.3312,1.3386,1.3386,1.344,1.344,1.3441]},{"header":{"parameterUnit":"m.s-1","parameterCategory":1,"la1":30.2991,"la2":30.254,"lo1":-89.0895,"lo2":-89.0444,"dy":0.0017,"dx":0.0017,"nx":28,"ny":28,"refTime":"2023-07-25T09:00:00:Z","depth":0,"parameterNumber":3,"parameterNumberName":"V-component_of_WINDS"},"data":[0,0,0,0,0,0,0,0,0,0,0,0,0,0,0,0,0,0,0,0,0,0,0,0,0,0,0,0,0,0,0,0,0,0,0,0,0,0,0,0,0,0,0,0,0,0,0,0,0,0,0,0,0,0,0,0,0,0,-1.7413,-1.7414,0,-1.7475,-1.7476,-1.7476,-1.7517,-1.7518,-1.7518,-1.7518,-1.7579,-1.758,-1.7581,0,0,0,0,0,0,0,0,0,0,0,0,0,-1.7332,-1.7333,-1.7413,-1.7414,-1.7415,-1.7475,-1.7476,-1.7477,-1.7517,-1.7518,-1.7518,-1.7518,-1.7578,-1.758,-1.7581,0,0,0,0,0,0,0,0,0,0,0,0,0,-1.7377,-1.7333,-1.7413,-1.7442,-1.7446,-1.7475,-1.7476,-1.7477,-1.7517,-1.7518,-1.7518,-1.7518,-1.7578,-1.758,-1.7582,-1.7585,0,0,-1.7588,-1.7589,0,0,0,0,0,0,0,0,-1.7375,-1.738,-1.7437,-1.7441,-1.7444,-1.7489,-1.7469,-1.7513,-1.7517,-1.749,-1.7518,-1.7519,-1.7548,-1.7553,-1.7563,-1.7588,-1.7591,-1.7588,-1.7589,-1.759,-1.7591,0,0,0,0,0,0,0,-1.7372,-1.7378,-1.7438,-1.7438,-1.7442,-1.7453,-1.746,-1.7478,-1.7516,-1.7492,-1.7495,-1.7502,-1.755,-1.7561,-1.7565,-1.7592,-1.7588,-1.759,-1.7591,-1.7592,-1.7627,-1.7627,0,0,0,0,0,0,-1.7364,-1.7375,-1.7436,-1.7439,-1.741,-1.7454,-1.7462,-1.7474,-1.7516,-1.7523,-1.7502,-1.7504,-1.7558,-1.7563,-1.7567,-1.7577,-1.759,-1.7592,-1.7593,-1.7628,-1.7627,-1.7627,0,0,0,0,0,0,-1.7362,-1.7369,-1.7433,-1.7408,-1.7417,-1.7455,-1.7468,-1.7475,-1.7486,-1.7523,-1.753,-1.7506,-1.7558,-1.7564,-1.7582,-1.758,-1.7593,-1.7595,-1.7628,-1.7628,-1.7627,-1.7595,0,0,0,0,0,0,-1.7359,-1.7368,-1.7369,-1.7408,-1.7418,-1.7446,-1.7468,-1.7476,-1.749,-1.7493,-1.7529,-1.7535,-1.7559,-1.7579,-1.7584,-1.7583,-1.7596,-1.7628,-1.7628,-1.7627,-1.7596,-1.7593,-1.7591,0,0,0,0,0,-1.7356,-1.7356,-1.7369,-1.7376,-1.7421,-1.7446,-1.7452,-1.748,-1.7489,-1.7492,-1.7516,-1.7534,-1.7579,-1.758,-1.7586,-1.7586,-1.7628,-1.7628,-1.7627,-1.7597,-1.7594,-1.7591,0,0,0,0,0,0,-1.7314,-1.7362,-1.7376,-1.7389,-1.7413,-1.7453,-1.7456,-1.7475,-1.7496,-1.7498,-1.7532,-1.754,-1.7554,-1.7572,-1.7572,-1.7594,-1.7606,-1.7607,-1.7581,-1.7578,-1.7576,-1.7571,-1.7598,0,0,0,0,0,-1.7307,-1.7324,-1.7364,-1.7371,-1.7383,-1.7418,-1.7429,-1.7449,-1.7476,-1.7486,-1.7511,-1.7536,-1.7556,-1.7568,-1.7588,-1.76,-1.7609,-1.7603,-1.76,-1.7598,-1.7598,-1.7608,-1.7606,-1.7625,-1.7625,-1.7625,0,0,-1.7291,-1.7319,-1.7327,-1.7363,-1.7385,-1.7402,-1.7426,-1.7442,-1.7455,-1.7488,-1.7507,-1.7527,-1.7556,-1.7572,-1.7579,-1.7587,-1.7595,-1.7597,-1.7595,-1.7596,-1.7607,-1.7605,-1.7604,-1.7625,-1.7625,-1.7625,0,0,-1.7271,-1.7293,-1.7303,-1.7325,-1.7358,-1.7381,-1.7384,-1.7422,-1.7437,-1.7457,-1.7483,-1.7499,-1.7532,-1.7554,-1.7569,-1.7562,-1.758,-1.7567,-1.7553,-1.7563,-1.7561,-1.756,-1.756,-1.7559,-1.7567,-1.7567,-1.7567,0,-1.7246,-1.7273,-1.7305,-1.7321,-1.7338,-1.7371,-1.7382,-1.7401,-1.7438,-1.7449,-1.7457,-1.7503,-1.7524,-1.7547,-1.7546,-1.7556,-1.7561,-1.7563,-1.7559,-1.7558,-1.7558,-1.7558,-1.7557,-1.7566,-1.7566,-1.7566,-1.7566,0,-1.7243,-1.7261,-1.7265,-1.7303,-1.732,-1.7333,-1.7368,-1.7382,-1.7401,-1.7425,-1.7446,-1.7475,-1.7503,-1.751,-1.7528,-1.7536,-1.754,-1.7553,-1.7566,-1.7554,-1.7554,-1.7554,-1.7563,-1.7564,-1.7564,-1.7565,0,0,-1.7194,-1.7253,-1.7254,-1.7273,-1.7314,-1.7329,-1.7346,-1.7375,-1.7387,-1.7412,-1.7428,-1.7457,-1.7471,-1.7489,-1.751,-1.7518,-1.7514,-1.7531,-1.7533,-1.7528,-1.7527,-1.7517,-1.7517,-1.7527,-1.7527,-1.7527,-1.7525,0,-1.7181,-1.7212,-1.7244,-1.7264,-1.7283,-1.7317,-1.7332,-1.7359,-1.7382,-1.7402,-1.7427,-1.7449,-1.7464,-1.7476,-1.7486,-1.7512,-1.7514,-1.7513,-1.7542,-1.7543,-1.7534,-1.7517,-1.7505,-1.7502,-1.7526,-1.7526,-1.7526,0,-1.7169,-1.7196,-1.7218,-1.7261,-1.7271,-1.7283,-1.7314,-1.7333,-1.7365,-1.7382,-1.7403,-1.7427,-1.7447,-1.7459,-1.7489,-1.7487,-1.7501,-1.7517,-1.7517,-1.7521,-1.7533,-1.7521,-1.7501,-1.7501,-1.7526,-1.7526,-1.7526,0,-1.7134,-1.7176,-1.7196,-1.7211,-1.726,-1.7269,-1.729,-1.7323,-1.734,-1.7368,-1.738,-1.7408,-1.7424,-1.7447,-1.7478,-1.7484,-1.7505,-1.7519,-1.752,-1.752,-1.7522,-1.7522,-1.7506,-1.7531,-1.7531,-1.7531,-1.7531,0,-1.7116,-1.7129,-1.7181,-1.7193,-1.721,-1.7246,-1.7262,-1.7286,-1.7316,-1.7334,-1.7365,-1.7381,-1.7422,-1.7444,-1.7469,-1.7491,-1.7497,-1.7512,-1.7518,-1.7509,-1.7508,-1.7519,-1.752,-1.7531,-1.7531,-1.7531,-1.7531,0,-1.7079,-1.7114,-1.7138,-1.7185,-1.7197,-1.7207,-1.7248,-1.7261,-1.7288,-1.7311,-1.7319,-1.736,-1.7388,-1.7422,-1.746,-1.7477,-1.7497,-1.7506,-1.7486,-1.749,-1.749,-1.749,-1.7481,-1.7483,-1.7505,-1.7505,-1.7505,0,-1.7065,-1.7076,-1.7125,-1.7141,-1.7161,-1.7185,-1.7204,-1.7241,-1.7259,-1.73,-1.7309,-1.734,-1.7366,-1.7409,-1.7443,-1.7473,-1.7484,-1.7479,-1.7488,-1.748,-1.7486,-1.7485,-1.7487,-1.7476,-1.7476,-1.7475,-1.7475,0,-1.7037,-1.7055,-1.7081,-1.7114,-1.7136,-1.7164,-1.7192,-1.7203,-1.7247,-1.7266,-1.7296,-1.7317,-1.7358,-1.7388,-1.7424,-1.7446,-1.7468,-1.7472,-1.7475,-1.7465,-1.7454,-1.7462,-1.748,-1.7472,-1.7472,-1.7472,-1.7473,-1.7473,-1.7012,-1.7025,-1.7063,-1.7092,-1.7118,-1.7146,-1.7162,-1.7192,-1.7218,-1.7255,-1.7276,-1.7306,-1.7342,-1.7392,-1.7414,-1.7439,-1.7446,-1.7449,-1.745,-1.745,-1.7448,-1.745,-1.7445,-1.7445,-1.7445,-1.7445,-1.7445,0,-1.6988,-1.7015,-1.7041,-1.7082,-1.7105,-1.7127,-1.7161,-1.7179,-1.7205,-1.7237,-1.7264,-1.73,-1.7331,-1.7368,-1.7402,-1.7415,-1.7426,-1.7422,-1.7422,-1.7427,-1.7438,-1.7434,-1.7413,-1.7413,-1.7413,-1.7413,-1.7413,-1.7413,-1.6978,-1.7002,-1.7025,-1.7063,-1.709,-1.7121,-1.7139,-1.7165,-1.7192,-1.7231,-1.7257,-1.7282,-1.7318,-1.7355,-1.7385,-1.7396,-1.7407,-1.74,-1.7414,-1.7423,-1.7426,-1.7429,-1.7425,-1.7402,-1.7402,-1.7401,-1.7401,-1.7401]}]]